Regional Weather Roundup
Issued by NWS

Home | Current Version | Previous Version | Graphics & Text | Print | Product List | Glossary On
Versions: 1 2 3 4 5 6 7 8 9 10 11 12 13 14 15 16 17 18 19 20 21 22 23 24 25 26 27
000
ASUS45 KBOI 232110
RWRID

IDAHO REGIONAL WEATHER ROUNDUP
NATIONAL WEATHER SERVICE BOISE ID
300 PM MDT FRI SEP 23 2016

NOTE: "FAIR" INDICATES FEW OR NO CLOUDS BELOW 12000 FEET
WITH NO SIGNIFICANT WEATHER AND/OR OBSTRUCTIONS TO VISIBILITY

IDZ012-014-232200-
SOUTHWEST IDAHO


CITY           SKY/WX    TMP DP  RH WIND       PRES   REMARKS
BOISE          MOSUNNY   66  39  37 W20G30    29.96F
CALDWELL       MOSUNNY   68  39  34 W22G29    29.98F
MOUNTAIN HOME  SUNNY     66  42  42 NW29G38   29.94F
$$

IDZ016-017-232200-
SOUTHCENTRAL IDAHO


CITY           SKY/WX    TMP DP  RH WIND       PRES   REMARKS
BURLEY         LGT RAIN  49  47  93 W14G23    29.92F
JEROME         LGT RAIN  51  48  89 SW17      29.93S
TWIN FALLS     LGT RAIN  50  46  86 W16       29.95S FOG
$$

IDZ019>023-232200-
SOUTHEAST IDAHO


CITY           SKY/WX    TMP DP  RH WIND       PRES   REMARKS
IDAHO FALLS    CLOUDY    52  45  77 SW8       29.92F
POCATELLO      CLOUDY    50  44  80 SW16      29.95R
REXBURG        LGT RAIN  50  46  86 SW8       29.90F
$$

IDZ006-010-011-018-031-032-232200-
CENTRAL IDAHO MOUNTAINS


CITY           SKY/WX    TMP DP  RH WIND       PRES   REMARKS
MCCALL         MOSUNNY   57  34  41 N17G23    30.03F
HAILEY         CLOUDY    54  48  82 E9        29.93R
STANLEY          N/A     54  38  54 NW13      30.02S
SALMON         CLOUDY    55  46  71 N9        29.95F
CHALLIS        CLOUDY    55  41  59 N7        29.97S
$$

IDZ002-004-006-007-026-232200-
NORTHERN IDAHO


CITY           SKY/WX    TMP DP  RH WIND       PRES   REMARKS
LEWISTON       CLOUDY    70  39  32 E7        29.99S
LOWELL           N/A     66  46  48 CALM      30.02F
COEUR D`ALENE  NOT AVBL
MULLAN PASS    CLOUDY    44  42  93 CALM      30.04S
$$




USA.gov is the U.S. government's official web portal to all federal, state and local government web resources and services.